Hays, KS

7:23 AM CST on December 12, 2017 (GMT -0600)
Hays Regional

Weather History for KHYS - August, 2014

Change the Weather History Date:

Sunday, August 24, 2014

  Actual Average Record
Temperature  
Mean Temperature 78 °F -  
Max Temperature 91 °F 87 °F 104 °F (1998)
Min Temperature 66 °F 62 °F 32 °F (2015)
Cooling Degree Days 14    
Growing Degree Days 28 (Base 50)    
Moisture  
Dew Point 57 °F    
Average Humidity 46    
Maximum Humidity 69    
Minimum Humidity 30    
Precipitation  
Precipitation 0.00 in - - ()
Sea Level Pressure  
Sea Level Pressure 29.86 in    
Wind  
Wind Speed 13 mph (North)    
Max Wind Speed 23 mph    
Max Gust Speed 30 mph    
Visibility 10 miles    
Events      
Averages and records for this station are not official NWS values.
T = Trace of Precipitation, MM = Missing Value Source: NWS Daily Summary

Daily Weather History Graph

Daily Weather History Graph

Search for Another Location

Airport or City:

Trip Planner

Search our weather history database for the weather conditions in past years. The results will help you decide how hot, cold, wet, or windy it might be!

Date:

Astronomy

Aug. 24, 2014 Rise Set
Actual Time 6:58 AM CDT 8:19 PM CDT
Civil Twilight 6:31 AM CDT 8:46 PM CDT
Nautical Twilight 5:57 AM CDT 9:20 PM CDT
Astronomical Twilight 5:22 AM CDT 9:54 PM CDT
Moon 6:10 AM CDT (8/24) 7:38 PM CDT (8/24)
Length of Visible Light 14h 15m
Length of Day
13h 20m
Waning Crescent, 1% of the Moon is Illuminated
Aug 24
Waning Crescent
Aug 25
New
Sep 2
First Quarter
Sep 8
Full
Sep 15
Last Quarter

Hourly Weather History & Observations

Time (CDT) Temp. Heat Index Dew Point Humidity Pressure Visibility Wind Dir Wind Speed Gust Speed Precip Events Conditions
12:15 AM 82.4 °F - 51.8 °F 35% 29.80 in 10.0 mi South 19.6 mph 27.6 mph N/A   Clear
12:35 AM 82.4 °F - 50.0 °F 32% 29.80 in 10.0 mi South 20.7 mph 27.6 mph N/A   Clear
12:55 AM 82.4 °F - 50.0 °F 32% 29.79 in 10.0 mi South 23.0 mph 26.5 mph N/A   Clear
1:15 AM 82.4 °F - 48.2 °F 30% 29.79 in 10.0 mi South 23.0 mph 29.9 mph N/A   Clear
1:35 AM 82.4 °F - 48.2 °F 30% 29.80 in 10.0 mi South 20.7 mph 28.8 mph N/A   Clear
1:55 AM 82.4 °F - 48.2 °F 30% 29.80 in 10.0 mi South 21.9 mph 27.6 mph N/A   Clear
2:15 AM 80.6 °F - 48.2 °F 32% 29.80 in 10.0 mi South 19.6 mph - N/A   Clear
2:35 AM 78.8 °F - 48.2 °F 34% 29.80 in 10.0 mi South 17.3 mph 26.5 mph N/A   Clear
2:55 AM 78.8 °F - 48.2 °F 34% 29.79 in 10.0 mi South 17.3 mph - N/A   Clear
3:15 AM 78.8 °F - 48.2 °F 34% 29.79 in 10.0 mi South 15.0 mph - N/A   Clear
3:35 AM 77.0 °F - 48.2 °F 36% 29.80 in 10.0 mi South 12.7 mph - N/A   Clear
3:55 AM 75.2 °F - 48.2 °F 38% 29.81 in 10.0 mi SW 9.2 mph - N/A   Clear
4:15 AM 75.2 °F - 50.0 °F 41% 29.81 in 10.0 mi West 3.5 mph - N/A   Clear
4:35 AM 73.4 °F - 50.0 °F 44% 29.80 in 10.0 mi South 9.2 mph - N/A   Clear
4:55 AM 71.6 °F - 50.0 °F 46% 29.82 in 10.0 mi WNW 5.8 mph - N/A   Partly Cloudy
5:15 AM 73.4 °F - 48.2 °F 41% 29.82 in 10.0 mi West 5.8 mph - N/A   Clear
5:35 AM 69.8 °F - 48.2 °F 46% 29.83 in 10.0 mi WNW 5.8 mph - N/A   Clear
5:55 AM 69.8 °F - 50.0 °F 49% 29.84 in 10.0 mi West 5.8 mph - N/A   Partly Cloudy
6:15 AM 69.8 °F - 50.0 °F 49% 29.84 in 10.0 mi SSW 4.6 mph - N/A   Scattered Clouds
6:35 AM 66.2 °F - 51.8 °F 60% 29.84 in 10.0 mi South 5.8 mph - N/A   Scattered Clouds
6:55 AM 68.0 °F - 51.8 °F 56% 29.85 in 10.0 mi SSE 8.1 mph - N/A   Scattered Clouds
7:15 AM 66.2 °F - 51.8 °F 60% 29.85 in 10.0 mi WNW 5.8 mph - N/A   Scattered Clouds
7:35 AM 66.2 °F - 51.8 °F 60% 29.86 in 10.0 mi WNW 5.8 mph - N/A   Scattered Clouds
7:55 AM 68.0 °F - 53.6 °F 60% 29.86 in 10.0 mi NNW 8.1 mph - N/A   Scattered Clouds
8:15 AM 69.8 °F - 57.2 °F 64% 29.86 in 10.0 mi NNW 4.6 mph - N/A   Scattered Clouds
8:35 AM 71.6 °F - 59.0 °F 64% 29.87 in 10.0 mi NNW 6.9 mph - N/A   Partly Cloudy
8:55 AM 73.4 °F - 60.8 °F 65% 29.87 in 10.0 mi North 5.8 mph - N/A   Clear
9:15 AM 73.4 °F - 60.8 °F 65% 29.87 in 10.0 mi North 8.1 mph - N/A   Clear
9:35 AM 75.2 °F - 60.8 °F 61% 29.87 in 10.0 mi North 10.4 mph - N/A   Clear
9:55 AM 77.0 °F - 60.8 °F 57% 29.88 in 10.0 mi North 10.4 mph - N/A   Clear
10:15 AM 78.8 °F - 60.8 °F 54% 29.88 in 10.0 mi North 11.5 mph - N/A   Clear
10:35 AM 80.6 °F 81.5 °F 60.8 °F 51% 29.89 in 10.0 mi North 11.5 mph - N/A   Clear
10:55 AM 80.6 °F 81.5 °F 60.8 °F 51% 29.89 in 10.0 mi North 13.8 mph - N/A   Clear
11:15 AM 82.4 °F 82.9 °F 60.8 °F 48% 29.89 in 10.0 mi NNE 12.7 mph 19.6 mph N/A   Clear
11:35 AM 84.2 °F 84.4 °F 60.8 °F 45% 29.89 in 10.0 mi NNE 15.0 mph - N/A   Clear
11:55 AM 84.2 °F 84.4 °F 60.8 °F 45% 29.89 in 10.0 mi NNE 12.7 mph - N/A   Clear
12:15 PM 86.0 °F 86.1 °F 60.8 °F 43% 29.89 in 10.0 mi NNE 10.4 mph 16.1 mph N/A   Clear
12:35 PM 87.8 °F 87.6 °F 60.8 °F 40% 29.89 in 10.0 mi NNE 11.5 mph 16.1 mph N/A   Clear
12:55 PM 87.8 °F 87.6 °F 60.8 °F 40% 29.89 in 10.0 mi North 9.2 mph - N/A   Clear
1:15 PM 87.8 °F 87.1 °F 59.0 °F 38% 29.89 in 10.0 mi NE 5.8 mph - N/A   Clear
1:35 PM 87.8 °F 87.6 °F 60.8 °F 40% 29.89 in 10.0 mi NNE 10.4 mph - N/A   Clear
1:55 PM 89.6 °F 89.5 °F 60.8 °F 38% 29.89 in 10.0 mi NE 8.1 mph - N/A   Clear
2:15 PM 89.6 °F 89.5 °F 60.8 °F 38% 29.89 in 10.0 mi NNE 8.1 mph - N/A   Clear
2:35 PM 89.6 °F 89.5 °F 60.8 °F 38% 29.88 in 10.0 mi NE 5.8 mph - N/A   Clear
2:55 PM 89.6 °F 88.9 °F 59.0 °F 36% 29.88 in 10.0 mi NNE 3.5 mph - N/A   Clear
3:15 PM 91.4 °F 91.4 °F 60.8 °F 36% 29.87 in 10.0 mi NE 10.4 mph - N/A   Clear
3:35 PM 89.6 °F 89.5 °F 60.8 °F 38% 29.87 in 10.0 mi North 5.8 mph - N/A   Clear
3:55 PM 91.4 °F 90.7 °F 59.0 °F 34% 29.86 in 10.0 mi NNE 9.2 mph - N/A   Clear
4:15 PM 91.4 °F 91.4 °F 60.8 °F 36% 29.86 in 10.0 mi NNW 8.1 mph - N/A   Clear
4:35 PM 91.4 °F 91.4 °F 60.8 °F 36% 29.86 in 10.0 mi NNW 8.1 mph - N/A   Clear
4:55 PM 91.4 °F 92.1 °F 62.6 °F 38% 29.86 in 10.0 mi North 9.2 mph - N/A   Clear
5:15 PM 91.4 °F 92.1 °F 62.6 °F 38% 29.85 in 10.0 mi NNW 10.4 mph 16.1 mph N/A   Clear
5:35 PM 91.4 °F 92.1 °F 62.6 °F 38% 29.85 in 10.0 mi NNW 10.4 mph - N/A   Clear
5:55 PM 91.4 °F 92.1 °F 62.6 °F 38% 29.85 in 10.0 mi NNW 11.5 mph - N/A   Clear
6:15 PM 91.4 °F 92.1 °F 62.6 °F 38% 29.85 in 10.0 mi North 11.5 mph - N/A   Clear
6:35 PM 91.4 °F 92.1 °F 62.6 °F 38% 29.85 in 10.0 mi NNW 11.5 mph - N/A   Clear
6:55 PM 89.6 °F 90.1 °F 62.6 °F 40% 29.86 in 10.0 mi North 11.5 mph - N/A   Clear
7:15 PM 89.6 °F 90.1 °F 62.6 °F 40% 29.86 in 10.0 mi North 12.7 mph - N/A   Clear
7:35 PM 87.8 °F 87.6 °F 60.8 °F 40% 29.86 in 10.0 mi North 10.4 mph - N/A   Clear
7:55 PM 86.0 °F 86.1 °F 60.8 °F 43% 29.87 in 10.0 mi North 8.1 mph - N/A   Clear
8:15 PM 82.4 °F 83.4 °F 62.6 °F 51% 29.88 in 10.0 mi North 6.9 mph - N/A   Clear
8:35 PM 80.6 °F 81.5 °F 60.8 °F 51% 29.89 in 10.0 mi North 5.8 mph - N/A   Clear
8:55 PM 78.8 °F - 60.8 °F 54% 29.90 in 10.0 mi North 6.9 mph - N/A   Clear
9:15 PM 77.0 °F - 60.8 °F 57% 29.91 in 10.0 mi NNE 8.1 mph - N/A   Clear
9:35 PM 77.0 °F - 60.8 °F 57% 29.91 in 10.0 mi NNE 8.1 mph - N/A   Clear
9:55 PM 75.2 °F - 62.6 °F 65% 29.92 in 10.0 mi NE 8.1 mph - N/A   Clear
10:15 PM 75.2 °F - 62.6 °F 65% 29.93 in 10.0 mi NE 9.2 mph - N/A   Clear
10:35 PM 73.4 °F - 60.8 °F 65% 29.93 in 10.0 mi NE 8.1 mph - N/A   Clear
10:55 PM 73.4 °F - 60.8 °F 65% 29.94 in 10.0 mi NNE 9.2 mph - N/A   Clear
11:15 PM 73.4 °F - 60.8 °F 65% 29.93 in 10.0 mi NNE 10.4 mph - N/A   Clear
11:35 PM 73.4 °F - 60.8 °F 65% 29.94 in 10.0 mi NNE 10.4 mph - N/A   Clear
11:55 PM 71.6 °F - 60.8 °F 69% 29.93 in 10.0 mi NNE 9.2 mph - N/A   Clear